Weather History for Pascagoula, MS

Change the Weather History Date:

Friday, June 6, 2014

  Actual Average Record
Temperature  
Mean Temperature 78 °F -  
Max Temperature 88 °F 87 °F 96 °F (1960)
Min Temperature 69 °F 70 °F 55 °F (2006)
Cooling Degree Days 14    
Growing Degree Days 28 (Base 50)    
Moisture  
Dew Point 72 °F    
Average Humidity 85    
Maximum Humidity 100    
Minimum Humidity 55    
Precipitation  
Precipitation 0.00 in - - ()
Sea Level Pressure  
Sea Level Pressure 29.95 in    
Wind  
Wind Speed 1 mph (SSW)    
Max Wind Speed 9 mph    
Max Gust Speed -    
Visibility 8 miles    
Events      
Averages and records for this station are not official NWS values.
T = Trace of Precipitation, MM = Missing Value Source: NWS Daily Summary

Daily Weather History Graph

Daily Weather History Graph

Search for Another Location

Airport:

Trip Planner

Search our weather history database for the weather conditions in past years. The results will help you decide how hot, cold, wet, or windy it might be!

Date:

Astronomy

Jun. 06, 2014 Rise Set
Actual Time 5:51 AM CDT 7:54 PM CDT
Civil Twilight 5:24 AM CDT 8:21 PM CDT
Nautical Twilight 4:50 AM CDT 8:55 PM CDT
Astronomical Twilight 4:15 AM CDT 9:30 PM CDT
Moon 1:38 PM CDT (6/6) 1:16 AM CDT (6/6)
Length of Visible Light 14h 57m
Length of Day
14h 02m
First Quarter, 58% of the Moon is Illuminated
Jun 6
First Quarter
Jun 12
Full
Jun 19
Last Quarter
Jun 27
New
Jul 5
First Quarter

Hourly Weather History & Observations

Time (CDT) Temp. Heat Index Dew Point Humidity Pressure Visibility Wind Dir Wind Speed Gust Speed Precip Events Conditions
12:53 AM 73.0 °F - 72.0 °F 96% 29.94 in 10.0 mi Calm Calm - N/A   Clear
1:53 AM 72.0 °F - 72.0 °F 100% 29.94 in 10.0 mi Calm Calm - N/A   Scattered Clouds
2:02 AM 73.0 °F - 72.0 °F 96% 29.93 in 10.0 mi Calm Calm - N/A   Mostly Cloudy
2:13 AM 73.0 °F - 72.0 °F 96% 29.93 in 10.0 mi Calm Calm - N/A   Scattered Clouds
2:22 AM 73.0 °F - 72.0 °F 96% 29.93 in 7.0 mi Calm Calm - N/A   Mostly Cloudy
2:31 AM 73.0 °F - 72.0 °F 96% 29.93 in 8.0 mi Calm Calm - N/A   Scattered Clouds
2:53 AM 72.0 °F - 71.1 °F 97% 29.94 in 6.0 mi Calm Calm - N/A   Clear
3:21 AM 71.1 °F - 71.1 °F 100% 29.93 in 1.8 mi Calm Calm - N/A   Clear
3:53 AM 71.1 °F - 70.0 °F 96% 29.94 in 3.0 mi Calm Calm - N/A   Clear
4:01 AM 71.1 °F - 70.0 °F 96% 29.94 in 2.5 mi Calm Calm - N/A   Partly Cloudy
4:08 AM 71.1 °F - 70.0 °F 96% 29.94 in 1.5 mi Calm Calm - N/A   Partly Cloudy
4:12 AM 71.1 °F - 70.0 °F 96% 29.94 in 3.0 mi Calm Calm - N/A   Clear
4:46 AM 71.1 °F - 70.0 °F 96% 29.95 in 2.5 mi Calm Calm - N/A   Clear
4:53 AM 70.0 °F - 70.0 °F 100% 29.96 in 8.0 mi Calm Calm - N/A   Clear
5:37 AM 69.1 °F - 69.1 °F 100% 29.97 in 1.8 mi Calm Calm - N/A   Clear
5:53 AM 70.0 °F - 69.1 °F 97% 29.98 in 7.0 mi Calm Calm - N/A   Clear
6:00 AM 69.1 °F - 69.1 °F 100% 29.98 in 7.0 mi Calm Calm - N/A   Clear
6:53 AM 73.0 °F - 71.1 °F 93% 29.99 in 10.0 mi Calm Calm - N/A   Clear
7:53 AM 80.1 °F 85.1 °F 75.0 °F 85% 29.99 in 10.0 mi Calm Calm - N/A   Clear
8:53 AM 82.0 °F 87.9 °F 73.9 °F 76% 29.99 in 10.0 mi Calm Calm - N/A   Partly Cloudy
9:29 AM 82.9 °F 89.4 °F 73.9 °F 74% 29.98 in 10.0 mi Variable 3.5 mph - N/A   Mostly Cloudy
9:48 AM 82.4 °F 87.2 °F 71.6 °F 70% 29.98 in 10.0 mi Calm Calm - N/A   Scattered Clouds
10:53 AM 86.0 °F 92.2 °F 72.0 °F 63% 29.96 in 10.0 mi Variable 3.5 mph - N/A   Scattered Clouds
11:53 AM 87.1 °F 95.4 °F 73.9 °F 65% 29.95 in 10.0 mi SSW 8.1 mph - N/A   Mostly Cloudy
12:53 PM 87.1 °F 94.5 °F 73.0 °F 63% 29.97 in 10.0 mi SSW 5.8 mph - N/A   Clear
1:53 PM 87.1 °F 94.5 °F 73.0 °F 63% 29.97 in 10.0 mi SSW 5.8 mph - N/A   Clear
2:53 PM 88.0 °F 92.9 °F 70.0 °F 55% 29.96 in 10.0 mi SSW 8.1 mph - N/A   Clear
4:53 PM 86.0 °F 92.2 °F 72.0 °F 63% 29.92 in 10.0 mi SSW 9.2 mph - N/A   Clear
5:53 PM 84.0 °F 89.6 °F 72.0 °F 67% 29.93 in 10.0 mi SW 4.6 mph - N/A   Partly Cloudy
6:53 PM 82.9 °F 88.8 °F 73.0 °F 72% 29.94 in 10.0 mi SSW 4.6 mph - N/A   Clear
7:53 PM 81.0 °F 85.8 °F 73.0 °F 77% 29.93 in 10.0 mi SW 4.6 mph - N/A   Partly Cloudy
8:53 PM 80.1 °F 84.5 °F 73.9 °F 81% 29.94 in 10.0 mi South 3.5 mph - N/A   Clear
9:53 PM 79.0 °F - 73.9 °F 84% 29.94 in 10.0 mi South 4.6 mph - N/A   Clear
10:53 PM 80.1 °F 85.1 °F 75.0 °F 85% 29.96 in 10.0 mi South 3.5 mph - N/A   Clear
11:53 PM 80.1 °F 85.4 °F 75.9 °F 87% 29.96 in 10.0 mi South 3.5 mph - N/A   Partly Cloudy